Location: Deneb Observatory
(47.2267°N, 100.4953°W)
Time: 03:38:21
(UTC-05:00)

Amateur Radio Satellites - All Passes

Search period start: 21 April 2014 03:08
Search period end: 22 April 2014 03:08
Location: Deneb Observatory, 47.2267°N, 100.4953°W

Satellite Date Start Highest point End Downlink Frequencies (MHz)
Time Altitude Azimuth
Uribyol 2 21 Apr 03:18:25 03:23:10 35° 97° (E) 03:27:54 436.500 FM
KITSAT 1 21 Apr 03:33:44 03:41:37 58° 116° (ESE) 03:49:31 435.175 FM
AO-27 21 Apr 03:59:18 04:04:30 77° 104° (ESE) 04:09:41 436.795 MHz FM
AO-Echo 21 Apr 03:59:41 04:04:28 64° 102° (ESE) 04:09:07 ?
Gurwin Techsat 1B 21 Apr 04:01:28 04:06:02 29° 94° (E) 04:10:35 435.225 FM
Sapphire 21 Apr 04:04:16 04:07:45 17° 330° (NNW) 04:11:14 437.095 MHz 1200 baud AX-25 AFSK
ITAMSAT 1 21 Apr 04:09:34 04:14:47 89° 286° (WNW) 04:19:58 435.822 SSB
Oscar 19 21 Apr 04:10:46 04:15:47 50° 291° (WNW) 04:20:47 437.125 CW, 437.150 USB
JAS-1B 21 Apr 04:14:08 04:16:57 14° 87° (E) 04:19:47 435.800 - 435.900 CW/SSB
Oscar 16 21 Apr 04:19:30 04:24:20 40° 293° (WNW) 04:29:08 437.025 USB, Beacon 2401.1428
Uosat F 21 Apr 04:22:21 04:23:29 11° 86° (E) 04:24:37 435.120 FM
OPAL 21 Apr 04:26:31 04:30:45 27° 264° (W) 04:35:04 ?
AO-7 21 Apr 04:45:59 04:51:27 19° 88° (E) 04:56:53 29.400 - 29.500 MHz
TMSAT-1 21 Apr 04:48:13 04:53:24 52° 100° (E) 04:58:32 436.925 FM
PCSat 21 Apr 04:51:56 04:53:35 11° 342° (NNW) 04:55:14 145.825 MHz
Uribyol 2 21 Apr 04:57:59 05:02:38 35° 295° (WNW) 05:07:17 436.500 FM
KITSAT 1 21 Apr 05:29:35 05:37:18 45° 319° (NW) 05:45:04 435.175 FM
STRAND 1 21 Apr 05:32:17 05:33:15 11° 52° (NE) 05:34:13 ?
AO-Echo 21 Apr 05:39:31 05:42:46 18° 301° (WNW) 05:45:58 ?
AO-27 21 Apr 05:40:02 05:43:26 18° 303° (WNW) 05:46:50 436.795 MHz FM
Gurwin Techsat 1B 21 Apr 05:41:09 05:46:11 44° 292° (WNW) 05:51:11 435.225 FM
ITAMSAT 1 21 Apr 05:50:38 05:53:33 15° 304° (NW) 05:56:28 435.822 SSB
Uosat F 21 Apr 05:58:03 06:03:06 81° 105° (ESE) 06:08:05 435.120 FM
JAS-1B 21 Apr 06:02:48 06:08:31 85° 287° (WNW) 06:14:23 435.800 - 435.900 CW/SSB
RS-15 21 Apr 06:10:29 06:18:45 24° 101° (ESE) 06:26:48 29.354 - 29.394 USB, Beacon 29.352 USB
TMSAT-1 21 Apr 06:28:44 06:33:02 26° 298° (WNW) 06:37:19 436.925 FM
AO-7 21 Apr 06:37:08 06:45:30 81° 108° (ESE) 06:53:51 29.400 - 29.500 MHz
STRAND 1 21 Apr 07:06:25 07:11:27 61° 71° (ENE) 07:16:29 ?
MaSat-1 21 Apr 07:16:29 07:19:22 74° 59° (ENE) 07:22:45 437.345 MHz
JAS-2 21 Apr 07:24:43 07:27:19 13° 88° (E) 07:30:01 435.800 - 435.900 CW/SSB, 435.910 FM
KITSAT 1 21 Apr 07:29:02 07:35:04 22° 347° (NNW) 07:41:05 435.175 FM
Hamsat 21 Apr 07:33:31 07:37:36 38° 97° (E) 07:41:41 145.90 MHz
Sapphire 21 Apr 07:37:07 07:39:44 13° 24° (NNE) 07:42:22 437.095 MHz 1200 baud AX-25 AFSK
Uosat F 21 Apr 07:38:12 07:41:16 17° 303° (WNW) 07:44:19 435.120 FM
JAS-1B 21 Apr 07:55:22 07:58:22 15° 308° (NW) 08:01:23 435.800 - 435.900 CW/SSB
RS-15 21 Apr 08:18:13 08:29:30 85° 124° (SE) 08:40:30 29.354 - 29.394 USB, Beacon 29.352 USB
PCSat 21 Apr 08:21:18 08:25:26 21° 35° (NE) 08:29:32 145.825 MHz
AO-7 21 Apr 08:30:44 08:37:31 29° 309° (NW) 08:44:18 29.400 - 29.500 MHz
STRAND 1 21 Apr 08:47:25 08:51:04 20° 269° (W) 08:54:43 ?
HO-68 21 Apr 09:07:32 09:08:58 11° 82° (E) 09:10:22 435.675 MHz FM
JAS-2 21 Apr 09:07:42 09:13:06 89° 106° (ESE) 09:19:02 435.800 - 435.900 CW/SSB, 435.910 FM
Hamsat 21 Apr 09:09:54 09:13:25 24° 295° (WNW) 09:16:56 145.90 MHz
SO-67 21 Apr 09:17:47 09:21:18 71° 284° (WNW) 09:24:47 435.3500 MHz FM
Sapphire 21 Apr 09:19:32 09:24:41 42° 47° (NE) 09:29:48 437.095 MHz 1200 baud AX-25 AFSK
KITSAT 1 21 Apr 09:27:34 09:33:46 23° 17° (NNE) 09:39:57 435.175 FM
PCSat 21 Apr 10:04:11 10:09:39 87° 57° (ENE) 10:15:04 145.825 MHz
RS-15 21 Apr 10:32:48 10:43:08 41° 332° (NNW) 10:53:21 29.354 - 29.394 USB, Beacon 29.352 USB
HO-68 21 Apr 10:51:03 10:58:10 60° 102° (ESE) 11:05:15 435.675 MHz FM
Oscar 11 21 Apr 10:51:28 10:55:09 26° 94° (E) 10:58:50 145.825 FM, Beacon 2401.500 USB
JAS-2 21 Apr 10:54:30 10:57:38 16° 303° (WNW) 11:00:53 435.800 - 435.900 CW/SSB, 435.910 FM
Sapphire 21 Apr 11:03:07 11:08:05 37° 247° (WSW) 11:13:00 437.095 MHz 1200 baud AX-25 AFSK
KITSAT 1 21 Apr 11:23:24 11:31:18 51° 44° (NE) 11:39:07 435.175 FM
PCSat 21 Apr 11:49:10 11:52:20 16° 256° (WSW) 11:55:29 145.825 MHz
Saudisat 1A 21 Apr 11:57:55 12:02:22 72° 125° (SE) 12:06:50 436.775 MHz
FUNcube-1 21 Apr 12:23:13 12:27:29 78° 103° (ESE) 12:31:50 145.950 - 145.970 MHz USB
Oscar 16 21 Apr 12:25:59 12:26:57 11° 51° (NE) 12:27:55 437.025 USB, Beacon 2401.1428
Oscar 11 21 Apr 12:27:27 12:31:25 35° 292° (WNW) 12:35:21 145.825 FM, Beacon 2401.500 USB
Oscar 10/S400 21 Apr 12:35:03 14:08:32 38° 244° (WSW) 18:46:30 145.825 - 145.975 CW/USB, Beacon 145.810 USB
HO-68 21 Apr 12:39:17 12:45:32 34° 302° (WNW) 12:51:46 435.675 MHz FM
RS-15 21 Apr 12:49:41 12:59:10 32° 6° (N) 13:08:38 29.354 - 29.394 USB, Beacon 29.352 USB
Uribyol 2 21 Apr 13:03:47 13:05:54 13° 53° (NE) 13:08:01 436.500 FM
KITSAT 1 21 Apr 13:19:03 13:26:44 49° 246° (WSW) 13:34:22 435.175 FM
AO-Echo 21 Apr 13:38:51 13:42:18 18° 59° (ENE) 13:45:42 ?
Saudisat 1A 21 Apr 13:38:52 13:42:26 23° 325° (NW) 13:45:59 436.775 MHz
AO-27 21 Apr 13:42:38 13:46:46 25° 61° (ENE) 13:50:55 436.795 MHz FM
Gurwin Techsat 1B 21 Apr 13:50:40 13:51:48 11° 51° (NE) 13:52:57 435.225 FM
Oscar 19 21 Apr 13:51:43 13:56:38 48° 69° (ENE) 14:01:36 437.125 CW, 437.150 USB
ITAMSAT 1 21 Apr 13:52:27 13:56:50 29° 63° (ENE) 14:01:14 435.822 SSB
Oscar 16 21 Apr 14:00:13 14:05:16 60° 71° (ENE) 14:10:23 437.025 USB, Beacon 2401.1428
FUNcube-1 21 Apr 14:01:21 14:03:22 13° 300° (WNW) 14:05:25 145.950 - 145.970 MHz USB
AO-7 21 Apr 14:02:37 14:04:57 11° 31° (NNE) 14:07:16 29.400 - 29.500 MHz
TMSAT-1 21 Apr 14:34:42 14:38:10 18° 57° (ENE) 14:41:40 436.925 FM
Uribyol 2 21 Apr 14:39:22 14:44:30 73° 72° (ENE) 14:49:40 436.500 FM
ISS 21 Apr 14:47:54 14:48:53 11° 133° (SE) 14:49:51 145.800 FM
JAS-1B 21 Apr 15:02:03 15:07:37 24° 59° (ENE) 15:12:35 435.800 - 435.900 CW/SSB
RS-15 21 Apr 15:03:53 15:14:34 54° 38° (NE) 15:25:23 29.354 - 29.394 USB, Beacon 29.352 USB
SO-50 21 Apr 15:05:42 15:08:07 14° 110° (ESE) 15:10:33 436.795 FM
AO-Echo 21 Apr 15:15:21 15:20:34 74° 257° (WSW) 15:25:39 ?
AO-27 21 Apr 15:20:55 15:25:59 53° 260° (W) 15:31:04 436.795 MHz FM
Gurwin Techsat 1B 21 Apr 15:25:31 15:30:43 59° 71° (ENE) 15:35:57 435.225 FM
ITAMSAT 1 21 Apr 15:31:13 15:36:09 44° 261° (W) 15:41:07 435.822 SSB
Oscar 19 21 Apr 15:32:00 15:36:13 25° 267° (W) 15:40:28 437.125 CW, 437.150 USB
Uosat F 21 Apr 15:37:12 15:41:07 23° 61° (ENE) 15:45:01 435.120 FM
Oscar 16 21 Apr 15:41:20 15:45:03 20° 269° (W) 15:48:49 437.025 USB, Beacon 2401.1428
AO-7 21 Apr 15:48:02 15:55:23 38° 55° (NE) 16:02:45 29.400 - 29.500 MHz
TMSAT-1 21 Apr 16:12:12 16:17:29 79° 256° (WSW) 16:22:49 436.925 FM
Uribyol 2 21 Apr 16:21:19 16:24:32 17° 271° (W) 16:27:46 436.500 FM
ISS 21 Apr 16:21:44 16:25:02 62° 150° (SSE) 16:28:22 145.800 FM
OPAL 21 Apr 16:32:02 16:37:13 62° 104° (ESE) 16:42:23 ?
SO-50 21 Apr 16:43:35 16:48:04 80° 308° (NW) 16:52:38 436.795 FM
JAS-1B 21 Apr 16:49:59 16:57:50 77° 256° (WSW) 17:04:23 435.800 - 435.900 CW/SSB
Gurwin Techsat 1B 21 Apr 17:07:07 17:11:05 21° 269° (W) 17:15:05 435.225 FM
Uosat F 21 Apr 17:14:40 17:19:34 54° 259° (W) 17:24:31 435.120 FM
UOSAT-12 21 Apr 17:15:26 17:18:18 17° 110° (ESE) 17:21:13 437.025 FM, 437.400 FM
RS-15 21 Apr 17:16:34 17:27:09 58° 244° (WSW) 17:38:00 29.354 - 29.394 USB, Beacon 29.352 USB
AO-7 21 Apr 17:39:38 17:47:48 62° 256° (WSW) 17:56:02 29.400 - 29.500 MHz
TMSAT-1 21 Apr 17:56:45 17:58:18 11° 275° (W) 17:59:50 436.925 FM
ISS 21 Apr 17:58:40 18:01:54 43° 349° (N) 18:05:08 145.800 FM
OPAL 21 Apr 18:11:42 18:15:42 23° 302° (WNW) 18:19:42 ?
SO-50 21 Apr 18:26:13 18:29:22 18° 330° (NNW) 18:32:34 436.795 FM
Hamsat 21 Apr 18:30:04 18:34:00 40° 70° (ENE) 18:38:01 145.90 MHz
Saudisat 1A 21 Apr 18:42:53 18:46:37 26° 37° (NE) 18:50:19 436.775 MHz
JAS-1B 21 Apr 18:45:22 18:49:14 15° 272° (W) 18:52:50 435.800 - 435.900 CW/SSB
UOSAT-12 21 Apr 18:53:19 18:57:54 74° 309° (NW) 19:02:36 437.025 FM, 437.400 FM
STRAND 1 21 Apr 19:15:09 19:18:15 16° 89° (E) 19:21:19 ?
JAS-2 21 Apr 19:23:35 19:29:01 53° 70° (ENE) 19:34:07 435.800 - 435.900 CW/SSB, 435.910 FM
RS-15 21 Apr 19:32:56 19:36:55 13° 266° (W) 19:40:56 29.354 - 29.394 USB, Beacon 29.352 USB
ISS 21 Apr 19:35:51 19:39:04 41° 9° (N) 19:42:17 145.800 FM
AO-7 21 Apr 19:39:16 19:42:21 12° 277° (W) 19:45:26 29.400 - 29.500 MHz
HO-68 21 Apr 19:39:19 19:43:12 16° 45° (NE) 19:47:06 435.675 MHz FM
SO-67 21 Apr 19:54:16 19:57:43 60° 74° (ENE) 20:01:11 435.3500 MHz FM
Hamsat 21 Apr 20:06:56 20:10:10 21° 268° (W) 20:13:28 145.90 MHz
Saudisat 1A 21 Apr 20:22:12 20:26:33 57° 237° (WSW) 20:30:50 436.775 MHz
UOSAT-12 21 Apr 20:35:38 20:38:52 18° 331° (NNW) 20:42:08 437.025 FM, 437.400 FM
STRAND 1 21 Apr 20:52:54 20:58:00 74° 287° (WNW) 21:03:05 ?
JAS-2 21 Apr 21:10:03 21:14:27 23° 267° (W) 21:18:38 435.800 - 435.900 CW/SSB, 435.910 FM
ISS 21 Apr 21:12:37 21:15:58 70° 209° (SSW) 21:19:19 145.800 FM
HO-68 21 Apr 21:22:34 21:29:33 61° 66° (ENE) 21:36:35 435.675 MHz FM
MaSat-1 21 Apr 21:24:19 21:25:29 12° 110° (ESE) 21:26:37 437.345 MHz
Oscar 11 21 Apr 21:49:37 21:53:25 31° 67° (ENE) 21:57:14 145.825 FM, Beacon 2401.500 USB
FUNcube-1 21 Apr 21:50:07 21:51:20 11° 58° (ENE) 21:52:33 145.950 - 145.970 MHz USB
SO-50 21 Apr 21:52:39 21:54:33 12° 20° (NNE) 21:56:28 436.795 FM
STRAND 1 21 Apr 22:34:15 22:36:20 13° 306° (NW) 22:38:26 ?
ISS 21 Apr 22:50:36 22:52:12 13° 226° (SW) 22:53:47 145.800 FM
MaSat-1 21 Apr 23:01:21 23:03:41 25° 305° (NW) 23:05:52 437.345 MHz
HO-68 21 Apr 23:11:35 23:17:41 30° 266° (W) 23:23:51 435.675 MHz FM
FUNcube-1 21 Apr 23:22:56 23:27:07 89° 254° (WSW) 23:31:19 145.950 - 145.970 MHz USB
Oscar 11 21 Apr 23:25:51 23:29:36 29° 265° (W) 23:33:24 145.825 FM, Beacon 2401.500 USB
SO-50 21 Apr 23:32:07 23:36:26 37° 43° (NE) 23:40:47 436.795 FM
UOSAT-12 22 Apr 00:01:00 00:03:15 13° 21° (NNE) 00:05:31 437.025 FM, 437.400 FM
Sapphire 22 Apr 00:06:24 00:09:57 18° 105° (ESE) 00:13:30 437.095 MHz 1200 baud AX-25 AFSK
PCSat 22 Apr 00:49:08 00:54:10 42° 114° (ESE) 00:59:15 145.825 MHz
SO-50 22 Apr 01:12:44 01:17:01 37° 242° (WSW) 01:21:20 436.795 FM
UOSAT-12 22 Apr 01:40:14 01:44:42 39° 43° (NE) 01:49:08 437.025 FM, 437.400 FM
Sapphire 22 Apr 01:47:19 01:52:44 78° 304° (NW) 01:58:11 437.095 MHz 1200 baud AX-25 AFSK
KITSAT 1 22 Apr 01:58:18 02:03:28 19° 101° (E) 02:08:37 435.175 FM
Oscar 19 22 Apr 02:01:50 02:04:17 13° 87° (E) 02:06:42 437.125 CW, 437.150 USB
Oscar 16 22 Apr 02:09:54 02:13:14 17° 89° (E) 02:16:34 437.025 USB, Beacon 2401.1428
OPAL 22 Apr 02:12:46 02:16:48 24° 58° (ENE) 02:20:53 ?
PCSat 22 Apr 02:32:37 02:37:39 38° 314° (NW) 02:42:44 145.825 MHz
Uribyol 2 22 Apr 02:49:46 02:53:35 20° 91° (E) 02:57:22 436.500 FM
